H1 CPF 2 NER 2022 8 10 9 222 01 glonass143 H2 2007501 9143 46805 2022 8 10 0 0 0 2022 8 13 23 45 0 900 1 1 0 0 0 1 H9 10 0 59801 0.00000 0 -9756603.647 -6200804.341 -22724148.913 10 0 59801 900.00000 0 -9342971.587 -8931700.796 -21978385.038 10 0 59801 1800.00000 0 -9140351.062 -11567627.643 -20805256.839 10 0 59801 2700.00000 0 -9134976.608 -14041814.242 -19227651.662 10 0 59801 3600.00000 0 -9301647.152 -16292525.420 -17276314.409 10 0 59801 4500.00000 0 -9604926.927 -18265420.590 -14989243.826 10 0 59801 5400.00000 0 -10000791.613 -19915612.251 -12410948.169 10 0 59801 6300.00000 0 -10438649.304 -21209338.873 -9591574.918 10 0 59801 7200.00000 0 -10863650.176 -22125183.303 -6585931.793 10 0 59801 8100.00000 0 -11219186.632 -22654787.010 -3452418.346 10 0 59801 9000.00000 0 -11449477.733 -22803031.612 -251889.165 10 0 59801 9900.00000 0 -11502128.326 -22587681.427 2953528.811 10 0 59801 10800.00000 0 -11330554.471 -22038503.458 6101641.714 10 0 59801 11700.00000 0 -10896172.539 -21195902.965 9131393.342 10 0 59801 12600.00000 0 -10170259.500 -20109132.991 11984045.487 10 0 59801 13500.00000 0 -9135405.802 -18834153.773 14604311.329 10 0 59801 14400.00000 0 -7786499.422 -17431232.339 16941420.351 10 0 59801 15300.00000 0 -6131199.370 -15962383.087 18950094.681 10 0 59801 16200.00000 0 -4189878.117 -14488756.413 20591418.762 10 0 59801 17100.00000 0 -1995034.428 -13068084.200 21833586.395 10 0 59801 18000.00000 0 409799.961 -11752288.388 22652511.476 10 0 59801 18900.00000 0 2971615.718 -10585351.768 23032291.412 10 0 59801 19800.00000 0 5629880.182 -9601539.131 22965514.774 10 0 59801 20700.00000 0 8318810.943 -8824042.382 22453407.460 10 0 59801 21600.00000 0 10969876.007 -8264105.642 21505814.473 10 0 59801 22500.00000 0 13514418.380 -7920666.547 20141017.197 10 0 59801 23400.00000 0 15886297.354 -7780528.668 18385388.979 10 0 59801 24300.00000 0 18024437.911 -7819057.898 16272894.672 10 0 59801 25200.00000 0 19875182.934 -8001373.863 13844442.696 10 0 59801 26100.00000 0 21394350.613 -8283986.610 11147101.086 10 0 59801 27000.00000 0 22548911.298 -8616809.967 8233191.702 10 0 59801 27900.00000 0 23318213.542 -8945466.853 5159279.358 10 0 59801 28800.00000 0 23694707.611 -9213789.105 1985075.149 10 0 59801 29700.00000 0 23684135.693 -9366405.795 -1227724.887 10 0 59801 30600.00000 0 23305180.485 -9351309.782 -4416642.947 10 0 59801 31500.00000 0 22588586.620 -9122292.874 -7519640.433 10 0 59801 32400.00000 0 21575791.931 -8641145.175 -10476332.226 10 0 59801 33300.00000 0 20317126.311 -7879524.065 -13229169.726 10 0 59801 34200.00000 0 18869654.463 -6820412.176 -15724568.651 10 0 59801 35100.00000 0 17294753.900 -5459101.167 -17913958.848 10 0 59801 36000.00000 0 15655530.781 -3803658.214 -19754735.060 10 0 59801 36900.00000 0 14014182.918 -1874854.238 -21211089.668 10 0 59801 37800.00000 0 12429421.314 294444.398 -22254711.040 10 0 59801 38700.00000 0 10954058.808 2660396.224 -22865333.996 10 0 59801 39600.00000 0 9632867.134 5169770.875 -23031131.828 10 0 59801 40500.00000 0 8500792.024 7761935.505 -22748942.664 10 0 59801 41400.00000 0 7581600.585 10371158.989 -22024326.146 10 0 59801 42300.00000 0 6887016.891 12929138.051 -20871449.729 10 0 59801 43200.00000 0 6416380.882 15367640.410 -19312807.207 10 0 59801 44100.00000 0 6156843.588 17621155.079 -17378775.215 10 0 59801 45000.00000 0 6084089.125 19629439.651 -15107016.654 10 0 59801 45900.00000 0 6163551.617 21339858.844 -12541742.854 10 0 59801 46800.00000 0 6352074.479 22709417.292 -9732849.038 10 0 59801 47700.00000 0 6599940.858 23706402.368 -6734940.207 10 0 59801 48600.00000 0 6853188.481 24311569.276 -3606266.636 10 0 59801 49500.00000 0 7056110.278 24518819.846 -407589.955 10 0 59801 50400.00000 0 7153834.454 24335347.677 2798997.790 10 0 59801 51300.00000 0 7094874.487 23781244.735 5951278.923 10 0 59801 52200.00000 0 6833541.011 22888586.984 8988115.285 10 0 59801 53100.00000 0 6332113.502 21700038.369 11850630.224 10 0 59801 54000.00000 0 5562679.993 20267032.451 14483344.778 10 0 59801 54900.00000 0 4508567.073 18647608.376 16835246.409 10 0 59801 55800.00000 0 3165299.696 16903991.997 18860770.113 10 0 59801 56700.00000 0 1541049.969 15100023.216 20520673.705 10 0 59801 57600.00000 0 -343444.690 13298536.601 21782791.188 10 0 59801 58500.00000 0 -2455491.604 11558804.045 22622650.424 10 0 59801 59400.00000 0 -4751556.946 9934145.265 23023943.930 10 0 59801 60300.00000 0 -7178839.050 8469804.849 22978844.247 10 0 59801 61200.00000 0 -9677237.017 7201183.469 22488158.000 10 0 59801 62100.00000 0 -12181634.505 6152496.164 21561315.639 10 0 59801 63000.00000 0 -14624405.458 5335912.967 20216196.600 10 0 59801 63900.00000 0 -16938038.990 4751217.375 18478792.570 10 0 59801 64800.00000 0 -19057775.514 4385996.613 16382714.377 10 0 59801 65700.00000 0 -20924145.232 4216355.673 13968550.930 10 0 59801 66600.00000 0 -22485303.596 4208125.206 11283091.541 10 0 59801 67500.00000 0 -23699066.381 4318512.545 8378425.673 10 0 59801 68400.00000 0 -24534559.045 4498126.347 5310936.763 10 0 59801 69300.00000 0 -24973410.806 4693289.275 2140209.254 10 0 59801 70200.00000 0 -25010442.716 4848540.663 -1072130.099 10 0 59801 71100.00000 0 -24653820.215 4909222.633 -4263613.902 10 0 59801 72000.00000 0 -23924663.135 4824039.288 -7372154.780 10 0 59801 72900.00000 0 -22856129.190 4547479.405 -10337260.525 10 0 59801 73800.00000 0 -21492009.338 4041998.666 -13101219.201 10 0 59801 74700.00000 0 -19884894.195 3279867.567 -15610230.130 10 0 59801 75600.00000 0 -18093988.935 2244605.287 -17815457.968 10 0 59801 76500.00000 0 -16182668.940 931937.432 -19673988.697 10 0 59801 77400.00000 0 -14215879.418 -649764.141 -21149668.456 10 0 59801 78300.00000 0 -12257488.566 -2479579.224 -22213808.739 10 0 59801 79200.00000 0 -10367705.544 -4524671.902 -22845744.277 10 0 59801 80100.00000 0 -8600671.576 -6741432.254 -23033232.940 10 0 59801 81000.00000 0 -7002324.823 -9077080.015 -22772690.253 10 0 59801 81900.00000 0 -5608627.812 -11471663.727 -22069254.360 10 0 59801 82800.00000 0 -4444230.864 -13860372.147 -20936680.563 10 0 59801 83700.00000 0 -3521626.243 -16176061.758 -19397067.882 10 0 59801 84600.00000 0 -2840827.078 -18351895.146 -17480423.243 10 0 59801 85500.00000 0 -2389582.985 -20323980.277 -15224072.091 10 0 59802 0.00000 0 -2144121.659 -22033900.661 -12671927.347 10 0 59802 900.00000 0 -2070383.501 -23431031.931 -9873629.713 10 0 59802 1800.00000 0 -2125696.030 -24474546.158 -6883579.849 10 0 59802 2700.00000 0 -2260815.648 -25135023.753 -3759876.901 10 0 59802 3600.00000 0 -2422249.760 -25395603.774 -563187.672 10 0 59802 4500.00000 0 -2554760.052 -25252626.251 2644432.576 10 0 59802 5400.00000 0 -2603940.478 -24715740.298 5800744.298 10 0 59802 6300.00000 0 -2518760.500 -23807474.362 8844529.359 10 0 59802 7200.00000 0 -2253965.866 -22562287.411 11716774.716 10 0 59802 8100.00000 0 -1772235.376 -21025141.485 14361811.347 10 0 59802 9000.00000 0 -1046002.519 -19249655.782 16728386.780 10 0 59802 9900.00000 0 -58865.075 -17295919.711 18770650.900 10 0 59802 10800.00000 0 1193476.919 -15228056.139 20449036.798 10 0 59802 11700.00000 0 2702794.826 -13111636.123 21731020.409 10 0 59802 12600.00000 0 4448435.303 -11011052.272 22591745.061 10 0 59802 13500.00000 0 6397951.264 -8986959.238 23014499.632 10 0 59802 14400.00000 0 8508234.921 -7093886.870 22991041.614 10 0 59802 15300.00000 0 10727107.216 -5378124.343 22521759.073 10 0 59802 16200.00000 0 12995299.100 -3875962.294 21615668.358 10 0 59802 17100.00000 0 15248743.886 -2612365.229 20290247.162 10 0 59802 18000.00000 0 17421086.705 -1600128.912 18571105.456 10 0 59802 18900.00000 0 19446307.890 -839557.278 16491499.729 10 0 59802 19800.00000 0 21261351.930 -318672.076 14091698.774 10 0 59802 20700.00000 0 22808652.805 -13946.254 11418212.257 10 0 59802 21600.00000 0 24038450.402 108469.832 8522895.974 10 0 59802 22500.00000 0 24910800.866 91081.102 5461950.340 10 0 59802 23400.00000 0 25397196.057 -16990.218 2294831.120 10 0 59802 24300.00000 0 25481723.427 -162326.788 -916906.580 10 0 59802 25200.00000 0 25161716.707 -289723.819 -4110808.434 10 0 59802 26100.00000 0 24447869.186 -344775.259 -7224741.142 10 0 59802 27000.00000 0 23363804.061 -276427.941 -10198108.359 10 0 59802 27900.00000 0 21945119.397 -39394.247 -12973037.768 10 0 59802 28800.00000 0 20237947.559 403680.227 -15495515.181 10 0 59802 29700.00000 0 18297089.631 1080387.201 -17716442.812 10 0 59802 30600.00000 0 16183803.304 2007143.205 -19592600.480 10 0 59802 31500.00000 0 13963337.392 3188255.038 -21087490.511 10 0 59802 32400.00000 0 11702316.629 4615503.817 -22172049.743 10 0 59802 33300.00000 0 9466086.511 6268266.250 -22825214.817 10 0 59802 34200.00000 0 7316129.420 8114168.863 -23034329.908 10 0 59802 35100.00000 0 5307659.871 10110248.508 -22795389.359 10 0 59802 36000.00000 0 3487498.928 12204571.049 -22113110.865 10 0 59802 36900.00000 0 1892315.877 14338240.818 -21000838.200 10 0 59802 37800.00000 0 547309.506 16447717.084 -19480275.788 10 0 59802 38700.00000 0 -534617.251 18467340.869 -17581060.547 10 0 59802 39600.00000 0 -1353156.314 20331966.538 -15340179.678 10 0 59802 40500.00000 0 -1920356.417 21979588.285 -12801245.931 10 0 59802 41400.00000 0 -2259859.807 23353851.792 -10013644.657 10 0 59802 42300.00000 0 -2405647.574 24406346.134 -7031569.543 10 0 59802 43200.00000 0 -2400348.142 25098580.259 -3912965.999 10 0 59802 44100.00000 0 -2293181.697 25403561.672 -718403.043 10 0 59802 45000.00000 0 -2137628.547 25306911.616 2490104.063 10 0 59802 45900.00000 0 -1988920.842 24807470.601 5650297.311 10 0 59802 46800.00000 0 -1901464.328 23917369.480 8700882.083 10 0 59802 47700.00000 0 -1926299.461 22661563.700 11582712.418 10 0 59802 48600.00000 0 -2108709.325 21076850.688 14239932.621 10 0 59802 49500.00000 0 -2486075.429 19210411.806 16621053.491 10 0 59802 50400.00000 0 -3086071.771 17117939.929 18679942.781 10 0 59802 51300.00000 0 -3925273.348 14861430.653 20376711.542 10 0 59802 52200.00000 0 -5008237.912 12506728.748 21678479.978 10 0 59802 53100.00000 0 -6327099.979 10120931.413 22560008.826 10 0 59802 54000.00000 0 -7861694.942 7769755.398 23004184.818 10 0 59802 54900.00000 0 -9580209.230 5514976.376 23002351.381 10 0 59802 55800.00000 0 -11440330.632 3412045.867 22554478.470 10 0 59802 56700.00000 0 -13390852.347 1507983.582 21669168.196 10 0 59802 57600.00000 0 -15373665.456 -160368.261 20363495.769 10 0 59802 58500.00000 0 -17326058.225 -1567656.869 18662688.126 10 0 59802 59400.00000 0 -19183227.678 -2700843.147 16599645.543 10 0 59802 60300.00000 0 -20880899.737 -3559504.453 14214314.334 10 0 59802 61200.00000 0 -22357949.046 -4155603.539 11552921.755 10 0 59802 62100.00000 0 -23558909.247 -4512733.622 8667086.870 10 0 59802 63000.00000 0 -24436268.356 -4664871.560 5612823.813 10 0 59802 63900.00000 0 -24952452.457 -4654691.802 2449456.332 10 0 59802 64800.00000 0 -25081413.565 -4531512.643 -761535.458 10 0 59802 65700.00000 0 -24809753.878 -4348962.025 -3957713.571 10 0 59802 66600.00000 0 -24137338.036 -4162462.350 -7076901.938 10 0 59802 67500.00000 0 -23077366.538 -4026641.689 -10058403.088 10 0 59802 68400.00000 0 -21655906.347 -3992782.144 -12844187.132 10 0 59802 69300.00000 0 -19910897.709 -4106414.650 -15380028.940 10 0 59802 70200.00000 0 -17890678.537 -4405163.313 -17616570.552 10 0 59802 71100.00000 0 -15652088.070 -4916931.814 -19510287.501 10 0 59802 72000.00000 0 -13258229.429 -5658509.699 -21024339.718 10 0 59802 72900.00000 0 -10775984.859 -6634658.518 -22129290.292 10 0 59802 73800.00000 0 -8273387.749 -7837717.297 -22803678.137 10 0 59802 74700.00000 0 -5816961.407 -9247744.735 -23034433.561 10 0 59802 75600.00000 0 -3469135.505 -10833192.777 -22817129.049 10 0 59802 76500.00000 0 -1285847.705 -12552083.779 -22156060.740 10 0 59802 77400.00000 0 685570.103 -14353642.147 -21064159.433 10 0 59802 78300.00000 0 2408133.711 -16180312.310 -19562733.220 10 0 59802 79200.00000 0 3856505.227 -17970078.554 -17681047.081 10 0 59802 80100.00000 0 5017795.629 -19658989.539 -15455747.892 10 0 59802 81000.00000 0 5891839.449 -21183781.766 -12930146.305 10 0 59802 81900.00000 0 6490931.962 -22484492.056 -10153369.635 10 0 59802 82800.00000 0 6839041.784 -23506949.520 -7179402.556 10 0 59802 83700.00000 0 6970533.870 -24205042.618 -4066034.491 10 0 59802 84600.00000 0 6928458.390 -24542666.396 -873734.435 10 0 59802 85500.00000 0 6762479.064 -24495268.374 2335524.559 10 0 59803 0.00000 0 6526529.630 -24050928.644 5499467.897 10 0 59803 900.00000 0 6276298.158 -23210928.865 8556727.151 10 0 59803 1800.00000 0 6066646.332 -21989787.343 11448025.174 10 0 59803 2700.00000 0 5949072.588 -20414758.206 14117321.513 10 0 59803 3600.00000 0 5969326.550 -18524816.246 16512891.998 10 0 59803 4500.00000 0 6165275.199 -16369169.707 18588323.832 10 0 59803 5400.00000 0 6565110.604 -14005362.816 20303407.359 10 0 59803 6300.00000 0 7185974.616 -11497046.593 21624908.126 10 0 59803 7200.00000 0 8033058.476 -8911510.022 22527205.049 10 0 59803 8100.00000 0 9099215.541 -6317073.203 22992783.176 10 0 59803 9000.00000 0 10365104.089 -3780449.589 23012572.045 10 0 59803 9900.00000 0 11799855.223 -1364185.655 22586123.382 10 0 59803 10800.00000 0 13362239.206 875717.025 21721624.710 10 0 59803 11700.00000 0 15002282.912 2891899.733 20435748.197 10 0 59803 12600.00000 0 16663272.212 4647378.383 18753337.011 10 0 59803 13500.00000 0 18284056.992 6116837.981 16706934.311 10 0 59803 14400.00000 0 19801563.561 7287436.457 14336162.878 10 0 59803 15300.00000 0 21153410.072 8159084.783 11686966.336 10 0 59803 16200.00000 0 22280515.814 8744191.983 8810725.620 10 0 59803 17100.00000 0 23129594.903 9066886.055 5763266.987 10 0 59803 18000.00000 0 23655429.188 9161743.737 2603780.369 10 0 59803 18900.00000 0 23822824.001 9072082.988 -606331.108 10 0 59803 19800.00000 0 23608163.399 8847890.706 -3804647.939 10 0 59803 20700.00000 0 23000498.136 8543473.839 -6928953.544 10 0 59803 21600.00000 0 22002119.285 8214934.063 -9918451.602 10 0 59803 22500.00000 0 20628592.116 7917573.895 -12714956.921 10 0 59803 23400.00000 0 18908247.781 7703345.134 -15264035.615 10 0 59803 24300.00000 0 16881153.346 7618448.771 -17516071.634 10 0 59803 25200.00000 0 14597602.823 7701189.082 -19427238.197 10 0 59803 26100.00000 0 12116192.201 7980173.662 -20960354.708 10 0 59803 27000.00000 0 9501558.928 8472936.387 -22085612.272 10 0 59803 27900.00000 0 6821880.279 9185042.209 -22781153.717 10 0 59803 28800.00000 0 4146235.154 10109712.084 -23033496.983 10 0 59803 29700.00000 0 1541939.229 11227984.324 -22837793.981 10 0 59803 30600.00000 0 -928035.766 12509405.854 -22197920.313 10 0 59803 31500.00000 0 -3207451.479 13913224.475 -21126394.460 10 0 59803 32400.00000 0 -5248902.371 15390032.111 -19644128.451 10 0 59803 33300.00000 0 -7015538.685 16883790.039 -17780015.143 10 0 59803 34200.00000 0 -8482342.369 18334150.940 -15570360.468 10 0 59803 35100.00000 0 -9636904.277 19678980.195 -13058171.902 10 0 59803 36000.00000 0 -10479671.950 20856970.425 -10292317.233 10 0 59803 36900.00000 0 -11023659.435 21810239.327 -7326570.237 10 0 59803 37800.00000 0 -11293633.249 22486801.600 -4218562.125 10 0 59803 38700.00000 0 -11324810.575 22842811.068 -1028659.333 10 0 59803 39600.00000 0 -11161126.078 22844478.807 2181210.092 10 0 59803 40500.00000 0 -10853141.851 22469586.781 5348758.529 10 0 59803 41400.00000 0 -10455689.715 21708533.550 8412545.749 10 0 59803 42300.00000 0 -10025346.156 20564868.271 11313167.231 10 0 59803 43200.00000 0 -9617846.867 19055290.705 13994401.004 10 0 59803 44100.00000 0 -9285550.126 17209117.156 16404291.119 10 0 59803 45000.00000 0 -9075055.861 15067234.524 18496147.265 10 0 59803 45900.00000 0 -9025080.483 12680585.726 20229441.910 10 0 59803 46800.00000 0 -9164676.640 10108248.961 21570588.466 10 0 59803 47700.00000 0 -9511872.584 7415189.944 22493586.190 10 0 59803 48600.00000 0 -10072788.268 4669779.461 22980520.162 10 0 59803 49500.00000 0 -10841265.551 1941178.013 23021907.242 10 0 59803 50400.00000 0 -11799028.546 -703305.156 22616881.590 10 0 59803 51300.00000 0 -12916368.283 -3200770.493 21773216.206 10 0 59803 52200.00000 0 -14153324.104 -5495099.191 20507179.674 10 0 59803 53100.00000 0 -15461313.550 -7539039.474 18843230.247 10 0 59803 54000.00000 0 -16785143.768 -9295922.406 16813552.257 10 0 59803 54900.00000 0 -18065321.291 -10740936.555 14457442.735 10 0 59803 55800.00000 0 -19240564.224 -11861908.800 11820559.025 10 0 59803 56700.00000 0 -20250411.964 -12659559.087 8954040.945 10 0 59803 57600.00000 0 -21037822.937 -13147218.696 5913523.655 10 0 59803 58500.00000 0 -21551650.799 -13350023.999 2758059.917 10 0 59803 59400.00000 0 -21748894.122 -13303619.946 -451027.537 10 0 59803 60300.00000 0 -21596623.770 -13052428.223 -3651341.086 10 0 59803 61200.00000 0 -21073505.391 -12647553.667 -6780626.960 10 0 59803 62100.00000 0 -20170851.426 -12144418.105 -9777993.214 10 0 59803 63000.00000 0 -18893156.862 -11600222.488 -12585102.398 10 0 59803 63900.00000 0 -17258094.820 -11071345.639 -15147314.696 10 0 59803 64800.00000 0 -15295971.012 -10610790.683 -17414758.491 10 0 59803 65700.00000 0 -13048659.024 -10265788.140 -19343306.825 10 0 59803 66600.00000 0 -10568060.469 -10075657.927 -20895440.227 10 0 59803 67500.00000 0 -7914154.020 -10070021.374 -22040978.927 10 0 59803 68400.00000 0 -5152714.600 -10267439.270 -22757670.180 10 0 59803 69300.00000 0 -2352797.846 -10674533.834 -23031619.464 10 0 59803 70200.00000 0 415905.448 -11285631.788 -22857557.476 10 0 59803 71100.00000 0 3085734.955 -12082943.628 -22238938.130 10 0 59803 72000.00000 0 5593635.817 -13037271.477 -21187866.042 10 0 59803 72900.00000 0 7883536.449 -14109215.522 -19724855.299 10 0 59803 73800.00000 0 9908430.962 -15250828.091 -17878424.500 10 0 59803 74700.00000 0 11632080.475 -16407645.486 -15684536.284 10 0 59803 75600.00000 0 13030263.710 -17521011.785 -13185892.444 10 0 59803 76500.00000 0 14091526.255 -18530596.611 -10431098.580 10 0 59803 77400.00000 0 14817398.785 -19377000.590 -7473714.811 10 0 59803 78300.00000 0 15222077.020 -20004338.643 -4371211.273 10 0 59803 79200.00000 0 15331578.642 -20362692.191 -1183848.970 10 0 59803 80100.00000 0 15182414.330 -20410326.926 2026491.909 10 0 59803 81000.00000 0 14819830.389 -20115582.766 5197513.200 10 0 59803 81900.00000 0 14295698.292 -19458356.459 8267706.029 10 0 59803 82800.00000 0 13666140.982 -18431114.495 11177540.577 10 0 59803 83700.00000 0 12988996.633 -17039393.748 13870615.420 10 0 59803 84600.00000 0 12321226.994 -15301768.621 16294744.573 10 0 59803 85500.00000 0 11716379.441 -13249285.812 18402961.578 10 0 59804 0.00000 0 11222209.349 -10924389.982 20154421.870 10 0 59804 900.00000 0 10878562.107 -8379383.069 21515187.631 10 0 59804 1800.00000 0 10715603.982 -5674483.688 22458878.473 10 0 59804 2700.00000 0 10752474.871 -2875561.904 22967179.326 10 0 59804 3600.00000 0 10996419.965 -51645.190 23030193.824 10 0 59804 4500.00000 0 11442436.559 2727703.556 22646637.708 10 0 59804 5400.00000 0 12073451.210 5395028.451 21823868.332 10 0 59804 6300.00000 0 12861020.506 7887535.361 20577749.362 10 0 59804 7200.00000 0 13766526.937 10149454.045 18932352.630 10 0 59804 8100.00000 0 14742820.725 12134110.679 16919502.023 10 0 59804 9000.00000 0 15736239.750 13805625.345 14578167.095 10 0 59804 9900.00000 0 16688923.596 15140164.239 11953717.115 10 0 59804 10800.00000 0 17541325.066 16126694.698 9097048.921 10 0 59804 11700.00000 0 18234813.766 16767211.642 6063604.644 10 0 59804 12600.00000 0 18714261.935 17076426.000 2912297.882 10 0 59804 13500.00000 0 18930502.944 17080928.356 -295631.058 10 0 59804 14400.00000 0 18842557.825 16817863.206 -3497808.480 10 0 59804 15300.00000 0 18419534.591 16333170.035 -6631945.430 10 0 59804 16200.00000 0 17642118.746 15679465.951 -9637056.251 10 0 59804 17100.00000 0 16503590.502 14913659.996 -12454653.037 10 0 59804 18000.00000 0 15010324.312 14094400.750 -15029891.691 10 0 59804 18900.00000 0 13181748.237 13279465.979 -17312646.526 10 0 59804 19800.00000 0 11049763.571 12523205.522 -19258491.763 10 0 59804 20700.00000 0 8657648.150 11874146.212 -20829570.304 10 0 59804 21600.00000 0 6058488.494 11372860.621 -21995332.635 10 0 59804 22500.00000 0 3313205.806 11050189.964 -22733131.486 10 0 59804 23400.00000 0 488257.952 10925896.331 -23028660.796 10 0 59804 24300.00000 0 -2346887.030 11007801.028 -22876230.795 10 0 59804 25200.00000 0 -5122400.931 11291445.119 -22278874.228 10 0 59804 26100.00000 0 -7770758.797 11760286.080 -21248282.054 10 0 59804 27000.00000 0 -10229305.403 12386421.831 -19804570.261 10 0 59804 27900.00000 0 -12442618.603 13131811.088 -17975882.668 10 0 59804 28800.00000 0 -14364571.902 13949938.101 -15797837.708 10 0 59804 29700.00000 0 -15960011.378 14787851.090 -13312830.240 10 0 59804 30600.00000 0 -17205978.295 15588487.980 -10569202.121 10 0 59804 31500.00000 0 -18092427.729 16293190.950 -7620298.001 10 0 59804 32400.00000 0 -18622414.818 16844303.381 -4523424.936 10 0 59804 33300.00000 0 -18811742.496 17187739.386 -1338736.298 10 0 59804 34200.00000 0 -18688087.157 17275417.319 1871937.943 10 0 59804 35100.00000 0 -18289640.581 17067454.523 5046291.582 10 0 59804 36000.00000 0 -17663326.584 16534030.669 8122749.746 10 0 59804 36900.00000 0 -16862668.539 15656841.168 11041660.060 10 0 59804 37800.00000 0 -15945398.282 14430079.342 13746444.470 10 0 59804 38700.00000 0 -14970907.445 12860905.852 16184689.754 10 0 59804 39600.00000 0 -13997648.488 10969385.348 18309156.049 10 0 59804 40500.00000 0 -13080594.456 8787892.362 20078684.605 10 0 59804 41400.00000 0 -12268863.678 6360010.413 21458988.062 10 0 59804 42300.00000 0 -11603608.536 3738969.232 22423308.725 10 0 59804 43200.00000 0 -11116256.213 985683.830 22952932.946 10 0 59804 44100.00000 0 -10827174.609 -1833524.580 23037552.261 10 0 59804 45000.00000 0 -10744819.005 -4649432.623 22675464.608 10 0 59804 45900.00000 0 -10865395.083 -7392541.527 21873611.782 10 0 59804 46800.00000 0 -11173052.634 -9995719.129 20647452.079 10 0 59804 47700.00000 0 -11640602.227 -12396748.758 19020669.939 10 0 59804 48600.00000 0 -12230725.452 -14540680.288 17024727.317 10 0 59804 49500.00000 0 -12897628.636 -16381886.454 14698264.362 10 0 59804 50400.00000 0 -13589071.269 -17885739.280 12086359.950 10 0 59804 51300.00000 0 -14248684.360 -19029837.002 9239665.304 10 0 59804 52200.00000 0 -14818481.404 -19804730.314 6213426.659 10 0 59804 53100.00000 0 -15241456.028 -20214117.401 3066415.426 10 0 59804 54000.00000 0 -15464156.285 -20274499.553 -140213.635 10 0 59804 54900.00000 0 -15439126.061 -20014311.828 -3344113.922 10 0 59804 55800.00000 0 -15127109.279 -19472565.432 -6482964.471 10 0 59804 56700.00000 0 -14498922.382 -18697059.358 -9495689.073 10 0 59804 57600.00000 0 -13536914.363 -17742237.204 -12323652.428 10 0 59804 58500.00000 0 -12235951.143 -16666780.248 -14911809.096 10 0 59804 59400.00000 0 -10603881.148 -15531039.127 -17209782.015 10 0 59804 60300.00000 0 -8661461.015 -14394413.299 -19172848.967 10 0 59804 61200.00000 0 -6441743.311 -13312789.533 -20762817.176 10 0 59804 62100.00000 0 -3988950.901 -12336148.053 -21948768.833 10 0 59804 63000.00000 0 -1356884.217 -11506437.532 -22707663.019 10 0 59804 63900.00000 0 1393072.484 -10855808.585 -23024782.421 10 0 59804 64800.00000 0 4194263.187 -10405279.966 -22894016.520 10 0 59804 65700.00000 0 6977294.481 -10163893.184 -22317976.090 10 0 59804 66600.00000 0 9672686.913 -10128390.512 -21307937.178 10 0 59804 67500.00000 0 12213533.344 -10283429.161 -19883616.038 10 0 59804 68400.00000 0 14538054.121 -10602321.721 -18072779.725 10 0 59804 69300.00000 0 16591943.183 -11048270.798 -15910700.191 10 0 59804 70200.00000 0 18330408.135 -11576044.915 -13439462.784 10 0 59804 71100.00000 0 19719820.223 -12134024.200 -10707142.786 10 0 59804 72000.00000 0 20738906.389 -12666528.829 -7766866.302 10 0 59804 72900.00000 0 21379434.928 -13116331.316 -4675774.029 10 0 59804 73800.00000 0 21646367.545 -13427246.074 -1493908.315 10 0 59804 74700.00000 0 21557472.859 -13546686.520 1716954.491 10 0 59804 75600.00000 0 21142419.119 -13428081.497 4894503.457 10 0 59804 76500.00000 0 20441385.570 -13033048.792 7977100.807 10 0 59804 77400.00000 0 19503251.939 -12333233.972 10904974.391 10 0 59804 78300.00000 0 18383443.032 -11311736.880 13621371.905 10 0 59804 79200.00000 0 17141519.504 -9964065.507 16073654.829 10 0 59804 80100.00000 0 15838616.184 -8298576.823 18214311.347 10 0 59804 81000.00000 0 14534835.328 -6336385.467 20001869.366 10 0 59804 81900.00000 0 13286703.634 -4110743.276 21401692.808 10 0 59804 82800.00000 0 12144798.980 -1665914.515 22386646.557 10 0 59804 83700.00000 0 11151645.459 944407.636 22937618.039 10 0 59804 84600.00000 0 10339963.997 3659078.999 23043885.932 10 0 59804 85500.00000 0 9731351.113 6411796.062 22703329.254 99